Weather History for KAVK - June, 2013

Change the Weather History Date:

Thursday, June 27, 2013

  Actual Average (KP28) Record (KP28)
Temperature  
Mean Temperature 89 °F 80 °F  
Max Temperature 107 °F 92 °F 109 °F (2013)
Min Temperature 71 °F 67 °F 50 °F (1968)
Degree Days  
Heating Degree Days 0 0  
Month to date heating degree days 0  
Since 1 June heating degree days 0  
Since 1 July heating degree days 4455  
Cooling Degree Days 24 15  
Month to date cooling degree days 307  
Year to date cooling degree days 463  
Since 1 June cooling degree days 307  
Growing Degree Days 39 (Base 50)    
Moisture  
Dew Point 67 °F    
Average Humidity 58    
Maximum Humidity 94    
Minimum Humidity 20    
Precipitation  
Precipitation 0.49 in 0.11 in 2.55 in (1985)
Month to date precipitation 3.82  
Year to date precipitation 13.56  
Snow  
Snow 0.00 in 0.00 in - ()
Month to date snowfall 0.0  
Since 1 June snowfall 0.0  
Since 1 July snowfall 8.5  
Snow Depth -    
Sea Level Pressure  
Sea Level Pressure 29.93 in    
Wind  
Wind Speed 11 mph (South)    
Max Wind Speed 29 mph    
Max Gust Speed 41 mph    
Visibility 9 miles    
Events Rain , Thunderstorm    
T = Trace of Precipitation, MM = Missing Value Source: NWS Daily Summary

Daily Weather History Graph

Daily Weather History Graph

Search for Another Location

Airport or City:

Trip Planner

Search our weather history database for the weather conditions in past years. The results will help you decide how hot, cold, wet, or windy it might be!

Date:

Astronomy

Jun. 27, 2013 Rise Set
Actual Time 6:17 AM CDT 8:57 PM CDT
Civil Twilight 5:47 AM CDT 9:28 PM CDT
Nautical Twilight 5:08 AM CDT 10:06 PM CDT
Astronomical Twilight 4:26 AM CDT 10:49 PM CDT
Moon No Moon Rise 11:12 AM CDT
Length of Visible Light 15h 41m
Length of Day
14h 39m
Waning Gibbous, 76% of the Moon is Illuminated
Jun 27
Waning Gibbous
Jun 29
Last Quarter
Jul 8
New
Jul 15
First Quarter
Jul 22
Full

Hourly Weather History & Observations

Time (CDT) Temp. Heat Index Dew Point Humidity Pressure Visibility Wind Dir Wind Speed Gust Speed Precip Events Conditions
12:00 AM 82.4 °F 87.2 °F 71.6 °F 70% 29.93 in 10.0 mi SSE 9.2 mph - N/A   Clear
12:20 AM 82.4 °F 87.2 °F 71.6 °F 70% 29.93 in 10.0 mi SSE 10.4 mph - N/A   Clear
12:40 AM 82.4 °F 87.2 °F 71.6 °F 70% 29.94 in 10.0 mi SSE 9.2 mph - N/A   Clear
1:00 AM 80.6 °F 84.6 °F 71.6 °F 74% 29.93 in 10.0 mi South 9.2 mph - N/A   Clear
1:20 AM 80.6 °F 84.6 °F 71.6 °F 74% 29.93 in 10.0 mi South 9.2 mph - N/A   Clear
1:40 AM 78.8 °F - 71.6 °F 78% 29.92 in 10.0 mi South 10.4 mph - N/A   Clear
2:05 AM 77.0 °F - 71.6 °F 83% 29.92 in 10.0 mi South 9.2 mph - N/A   Clear
2:20 AM 77.0 °F - 71.6 °F 83% 29.92 in 10.0 mi South 10.4 mph - N/A   Clear
2:40 AM 77.0 °F - 71.6 °F 83% 29.92 in 10.0 mi South 10.4 mph - N/A   Clear
3:00 AM 77.0 °F - 71.6 °F 83% 29.92 in 10.0 mi South 10.4 mph - N/A   Clear
3:20 AM 75.2 °F - 71.6 °F 89% 29.92 in 10.0 mi South 9.2 mph - N/A   Clear
3:40 AM 75.2 °F - 71.6 °F 89% 29.92 in 9.0 mi South 10.4 mph - N/A   Clear
4:00 AM 75.2 °F - 71.6 °F 89% 29.92 in 10.0 mi South 9.2 mph - N/A   Clear
4:20 AM 75.2 °F - 71.6 °F 89% 29.92 in 10.0 mi South 10.4 mph - N/A   Clear
4:40 AM 73.4 °F - 71.6 °F 94% 29.92 in 9.0 mi SSW 8.1 mph - N/A   Clear
5:00 AM 73.4 °F - 71.6 °F 94% 29.92 in 8.0 mi South 8.1 mph - N/A   Clear
5:20 AM 73.4 °F - 71.6 °F 94% 29.92 in 7.0 mi South 6.9 mph - N/A   Clear
5:40 AM 73.4 °F - 71.6 °F 94% 29.92 in 8.0 mi South 8.1 mph - N/A   Clear
6:00 AM 73.4 °F - 71.6 °F 94% 29.92 in 8.0 mi South 9.2 mph - N/A   Clear
6:25 AM 73.4 °F - 71.6 °F 94% 29.92 in 7.0 mi SSE 8.1 mph - N/A   Clear
6:40 AM 73.4 °F - 71.6 °F 94% 29.93 in 7.0 mi SSE 6.9 mph - N/A   Clear
7:00 AM 75.2 °F - 71.6 °F 89% 29.93 in 7.0 mi SSE 6.9 mph - N/A   Clear
7:25 AM 77.0 °F - 71.6 °F 83% 29.95 in 7.0 mi SSE 4.6 mph - N/A   Clear
7:40 AM 77.0 °F - 71.6 °F 83% 29.95 in 7.0 mi South 5.8 mph - N/A   Clear
8:00 AM 80.6 °F 84.6 °F 71.6 °F 74% 29.95 in 8.0 mi South 3.5 mph - N/A   Clear
8:20 AM 82.4 °F 87.2 °F 71.6 °F 70% 29.95 in 9.0 mi South 4.6 mph - N/A   Clear
8:40 AM 84.2 °F 88.4 °F 69.8 °F 62% 29.95 in 9.0 mi SW 8.1 mph - N/A   Clear
9:00 AM 86.0 °F 89.4 °F 68.0 °F 55% 29.94 in 9.0 mi SW 13.8 mph - N/A   Clear
9:20 AM 89.6 °F 93.4 °F 68.0 °F 49% 29.95 in 9.0 mi SSW 12.7 mph - N/A   Clear
9:40 AM 91.4 °F 95.4 °F 68.0 °F 46% 29.95 in 10.0 mi SSW 8.1 mph - N/A   Clear
10:00 AM 93.2 °F 97.7 °F 68.0 °F 44% 29.95 in 10.0 mi SSW 6.9 mph - N/A   Clear
10:20 AM 95.0 °F 99.5 °F 68.0 °F 41% 29.94 in 10.0 mi SW 9.2 mph - N/A   Clear
10:40 AM 95.0 °F 99.5 °F 68.0 °F 41% 29.95 in 10.0 mi SW 8.1 mph - N/A   Clear
11:00 AM 96.8 °F 101.8 °F 68.0 °F 39% 29.94 in 10.0 mi SW 9.2 mph - N/A   Clear
11:25 AM 98.6 °F 104.1 °F 68.0 °F 37% 29.94 in 9.0 mi South 6.9 mph 16.1 mph N/A   Clear
11:40 AM 100.4 °F 106.3 °F 68.0 °F 35% 29.93 in 10.0 mi SSW 10.4 mph - N/A   Clear
12:00 PM 100.4 °F 104.9 °F 66.2 °F 33% 29.94 in 10.0 mi South 10.4 mph - N/A   Clear
12:25 PM 100.4 °F 104.9 °F 66.2 °F 33% 29.93 in 10.0 mi South 11.5 mph - N/A   Clear
12:40 PM 102.2 °F 106.9 °F 66.2 °F 31% 29.93 in 10.0 mi South 11.5 mph - N/A   Clear
1:00 PM 102.2 °F 106.9 °F 66.2 °F 31% 29.93 in 10.0 mi SSW 11.5 mph 20.7 mph N/A   Clear
1:20 PM 104.0 °F 108.9 °F 66.2 °F 29% 29.92 in 9.0 mi SSW 12.7 mph 18.4 mph N/A   Clear
1:40 PM 104.0 °F 107.4 °F 64.4 °F 27% 29.92 in 8.0 mi SSW 8.1 mph 17.3 mph N/A   Clear
2:00 PM 104.0 °F 107.4 °F 64.4 °F 27% 29.92 in 6.0 mi SW 12.7 mph 18.4 mph N/A   Haze
2:20 PM 104.0 °F 108.9 °F 66.2 °F 29% 29.91 in 10.0 mi SSW 12.7 mph 17.3 mph N/A   Clear
2:40 PM 107.6 °F 112.3 °F 64.4 °F 25% 29.90 in 10.0 mi WSW 5.8 mph 20.7 mph N/A   Clear
3:00 PM 105.8 °F 109.8 °F 64.4 °F 26% 29.89 in 10.0 mi South 9.2 mph 20.7 mph N/A   Clear
3:20 PM 107.6 °F 112.3 °F 64.4 °F 25% 29.88 in 10.0 mi SSW 12.7 mph 19.6 mph N/A   Clear
3:45 PM 107.6 °F 112.3 °F 64.4 °F 25% 29.87 in 10.0 mi SSW 16.1 mph 21.9 mph N/A   Clear
4:00 PM 107.6 °F 110.6 °F 62.6 °F 23% 29.87 in 10.0 mi SSW 13.8 mph 25.3 mph N/A   Clear
4:20 PM 107.6 °F 110.6 °F 62.6 °F 23% 29.85 in 10.0 mi South 13.8 mph 20.7 mph N/A   Clear
4:40 PM 107.6 °F 108.2 °F 59.0 °F 20% 29.83 in 10.0 mi SW 16.1 mph 24.2 mph N/A   Clear
5:00 PM 107.6 °F 110.6 °F 62.6 °F 23% 29.81 in 10.0 mi SSW 19.6 mph 32.2 mph N/A   Clear
5:20 PM 107.6 °F 108.2 °F 59.0 °F 20% 29.82 in 10.0 mi SSW 16.1 mph 26.5 mph N/A   Clear
5:40 PM 107.6 °F 108.2 °F 59.0 °F 20% 29.81 in 10.0 mi SSW 18.4 mph 26.5 mph N/A   Clear
6:00 PM 107.6 °F 108.2 °F 59.0 °F 20% 29.84 in 10.0 mi SW 13.8 mph - N/A   Clear
6:20 PM 104.0 °F 104.6 °F 59.0 °F 23% 29.83 in 10.0 mi SSW 12.7 mph - N/A   Clear
6:40 PM 104.0 °F 104.6 °F 59.0 °F 23% 29.85 in 10.0 mi SW 9.2 mph 18.4 mph N/A   Clear
7:00 PM 89.6 °F 88.1 °F 57.2 °F 33% 29.93 in 5.0 mi North 28.8 mph 40.3 mph N/A Thunderstorm Haze
7:20 PM 73.4 °F - 66.2 °F 78% 29.99 in 2.5 mi NE 21.9 mph 41.4 mph 0.07 in Rain , Thunderstorm Heavy Rain
7:45 PM 73.4 °F - 68.0 °F 83% 30.02 in 5.0 mi ENE 21.9 mph 25.3 mph 0.21 in Rain , Thunderstorm Light Thunderstorms and Rain
8:00 PM 73.4 °F - 66.2 °F 78% 30.02 in 8.0 mi ENE 20.7 mph 27.6 mph 0.22 in Rain , Thunderstorm Light Rain
8:20 PM 73.4 °F - 66.2 °F 78% 30.04 in 5.0 mi East 16.1 mph - 0.05 in Rain , Thunderstorm Light Rain
8:40 PM 73.4 °F - 66.2 °F 78% 30.03 in 9.0 mi East 23.0 mph 31.1 mph 0.05 in Rain , Thunderstorm Light Rain
9:00 PM 71.6 °F - 66.2 °F 83% 30.02 in 10.0 mi East 26.5 mph 33.4 mph 0.06 in Rain , Thunderstorm Light Rain
9:20 PM 73.4 °F - 66.2 °F 78% 29.98 in 10.0 mi SE 25.3 mph 31.1 mph N/A Rain , Thunderstorm Light Rain
9:40 PM 75.2 °F - 64.4 °F 69% 29.98 in 10.0 mi SSE 18.4 mph 34.5 mph N/A Thunderstorm Mostly Cloudy
10:00 PM 75.2 °F - 64.4 °F 69% 29.98 in 10.0 mi SSE 21.9 mph 33.4 mph N/A   Mostly Cloudy
10:20 PM 75.2 °F - 64.4 °F 69% 29.99 in 10.0 mi SSE 21.9 mph 28.8 mph N/A   Scattered Clouds
10:40 PM 75.2 °F - 62.6 °F 65% 29.97 in 10.0 mi SSE 19.6 mph 25.3 mph N/A   Clear
11:00 PM 77.0 °F - 62.6 °F 61% 29.96 in 10.0 mi South 16.1 mph - N/A   Clear
11:20 PM 75.2 °F - 62.6 °F 65% 29.96 in 10.0 mi South 13.8 mph - N/A   Clear
11:40 PM 77.0 °F - 60.8 °F 57% 29.95 in 10.0 mi South 12.7 mph - N/A   Partly Cloudy